This is the latest recevied weather packets stored in our database for station/object KD7AWQ. If no packets are shown the sender has not sent any weather packets the latest 10 day(s).
| Time | Temp. | Humidity | Pressure | Rain* | Wind** | Luminosity | Snow |
|---|---|---|---|---|---|---|---|
| 1777458995 | 15.56° C | 19% | 1185.6 hPa | 0 mm | - | 0 W/m² | - |
| 1777458692 | 15.56° C | 18% | 1185.8 hPa | 0 mm | - | 0 W/m² | - |
| 1777458388 | 16.11° C | 18% | 1185.5 hPa | 0 mm | - | 0 W/m² | - |
| 1777458084 | 16.11° C | 18% | 1185.6 hPa | 0 mm | - | 0 W/m² | - |
| 1777457780 | 16.11° C | 18% | 1185.6 hPa | 0 mm | - | 0 W/m² | - |
| 1777457480 | 16.11° C | 18% | 1185.7 hPa | 0 mm | - | 0 W/m² | - |
| 1777457176 | 15.56° C | 18% | 1185.7 hPa | 0 mm | - | 0 W/m² | - |
| 1777456871 | 16.11° C | 18% | 1186.1 hPa | 0 mm | - | 0 W/m² | - |
| 1777456566 | 15.56° C | 18% | 1185.5 hPa | 0 mm | - | 0 W/m² | - |
| 1777456262 | 15.56° C | 18% | 1185.7 hPa | 0 mm | - | 0 W/m² | - |
| 1777455958 | 15.56° C | 18% | 1185.8 hPa | 0 mm | - | 0 W/m² | - |
| 1777455655 | 16.11° C | 18% | 1186 hPa | 0 mm | - | 0 W/m² | - |
| 1777455351 | 16.11° C | 18% | 1185.6 hPa | 0 mm | - | 0 W/m² | - |
| 1777455049 | 16.67° C | 17% | 1185.7 hPa | 0 mm | - | 0 W/m² | - |
| 1777454745 | 16.67° C | 17% | 1185.7 hPa | 0 mm | - | 0 W/m² | - |
| 1777454440 | 16.67° C | 17% | 1186.1 hPa | 0 mm | - | 0 W/m² | - |
| 1777454132 | 16.67° C | 17% | 1186.1 hPa | 0 mm | - | 0 W/m² | - |
| 1777453828 | 17.22° C | 17% | 1185.7 hPa | 0 mm | - | 0 W/m² | - |
| 1777453526 | 16.67° C | 17% | 1185.7 hPa | 0 mm | - | 0 W/m² | - |
| 1777453223 | 16.67° C | 17% | 1185.7 hPa | 0 mm | - | 0 W/m² | - |
| 1777452919 | 16.67° C | 17% | 1185.6 hPa | 0 mm | - | 0 W/m² | - |
| 1777452617 | 16.67° C | 17% | 1186 hPa | 0 mm | - | 0 W/m² | - |
| 1777452313 | 17.22° C | 17% | 1185.8 hPa | 0 mm | - | 0 W/m² | - |
| 1777452009 | 17.22° C | 17% | 1185.7 hPa | 0 mm | - | 0 W/m² | - |
| 1777451704 | 17.22° C | 17% | 1185.7 hPa | 0 mm | - | 0 W/m² | - |
* Rain latest hour (hover to see other rain measurements)
** Current wind speed in m/s (hover to see current wind gust speed)